Simultaneous Nadir Overpasses (SNOs) Predictions

Prediction of SNOs between NOAA-20 and METOP-C Satellite Orbit:

Table of predicted SNOs for the next 14.0 days since TLE Epoch: 3/22/2019
Index Date (NOAA-20) Time (NOAA-20) Lat,Lon (NOAA-20) SZA (NOAA-20 ) Date (METOP-C) Time (METOP-C) Lat,Lon (METOP-C) SZA (METOP-C ) Distance(km) Time Diff (sec)
1 04/03/2019 01:35:42 73.39, 146.64 68.44 04/03/2019 01:36:49 73.36, 149.09 68.28 78.04 67
2 04/03/2019 02:26:24 -73.29, -45.82 111.68 04/03/2019 02:27:33 -73.22, -43.89 111.87 62.38 69
3 04/03/2019 03:17:06 73.10, 121.92 68.09 04/03/2019 03:18:17 73.04, 123.04 67.96 37.02 71
4 04/03/2019 04:07:48 -73.00, -70.55 112.04 04/03/2019 04:09:00 -72.95, -69.82 112.14 24.56 72
5 04/03/2019 04:58:30 72.80, 97.18 67.74 04/03/2019 04:59:43 72.82, 97.23 67.74 2.87 73
6 04/03/2019 05:49:14 -72.80, -95.51 112.28 04/03/2019 05:50:25 -72.78, -95.52 112.32 2.47 71
7 04/03/2019 06:40:00 72.80, 71.79 67.72 04/03/2019 06:41:05 72.80, 71.86 67.69 2.21 65
8 04/03/2019 07:30:43 -72.76,-120.80 112.35 04/03/2019 07:31:47 -72.76,-120.89 112.36 3.31 64
9 04/03/2019 08:21:29 72.76, 46.51 67.64 04/03/2019 08:22:27 72.78, 46.48 67.65 2.64 58
10 04/03/2019 09:12:13 -72.76,-146.18 112.38 04/03/2019 09:13:08 -72.79,-146.17 112.36 3.47 55
11 04/03/2019 10:02:59 72.76, 21.12 67.62 04/03/2019 10:03:49 72.76, 21.10 67.61 0.92 50
12 04/03/2019 10:53:43 -72.77,-171.57 112.40 04/03/2019 10:54:30 -72.77,-171.55 112.40 1.02 47
13 04/03/2019 11:44:29 72.77, -4.26 67.60 04/03/2019 11:45:11 72.74, -4.28 67.56 3.06 42
14 04/03/2019 12:35:13 -72.77, 163.05 112.42 04/03/2019 12:35:52 -72.76, 163.07 112.45 2.09 39
15 04/03/2019 13:25:59 72.77, -29.65 67.57 04/03/2019 13:26:32 72.77, -29.55 67.56 3.08 33
16 04/03/2019 14:16:42 -72.73, 137.77 112.50 04/03/2019 14:17:14 -72.74, 137.70 112.49 2.55 32
17 04/03/2019 15:07:28 72.73, -54.93 67.50 04/03/2019 15:07:54 72.76, -54.93 67.52 2.92 26
18 04/03/2019 15:58:12 -72.73, 112.38 112.52 04/03/2019 15:58:36 -72.72, 112.32 112.53 2.63 24
19 04/03/2019 16:48:58 72.73, -80.31 67.48 04/03/2019 16:49:16 72.74, -80.31 67.48 0.23 18
20 04/03/2019 17:39:42 -72.74, 87.00 112.54 04/03/2019 17:39:57 -72.75, 87.04 112.53 2.11 15
21 04/03/2019 18:30:28 72.74,-105.70 67.46 04/03/2019 18:30:38 72.72,-105.69 67.43 2.50 10
22 04/03/2019 19:21:12 -72.74, 61.61 112.56 04/03/2019 19:21:19 -72.73, 61.67 112.58 2.28 7
23 04/03/2019 20:11:57 72.69,-130.98 67.38 04/03/2019 20:12:00 72.70,-131.07 67.39 2.94 3
24 04/03/2019 21:02:41 -72.70, 36.33 112.64 04/03/2019 21:02:41 -72.71, 36.29 112.62 2.12 0
25 04/03/2019 21:53:27 72.70,-156.37 67.36 04/03/2019 21:53:22 72.68,-156.45 67.34 3.47 5
26 04/03/2019 22:44:11 -72.70, 10.94 112.66 04/03/2019 22:44:03 -72.69, 10.91 112.66 1.51 8
27 04/03/2019 23:34:57 72.71, 178.25 67.34 04/03/2019 23:34:43 72.71, 178.28 67.34 1.28 14
28 04/04/2019 00:25:41 -72.71, -14.44 112.68 04/04/2019 00:25:24 -72.73, -14.36 112.66 3.23 17
29 04/04/2019 01:16:27 72.71, 152.86 67.32 04/04/2019 01:16:05 72.69, 152.90 67.30 2.35 22
30 04/04/2019 02:07:11 -72.71, -39.83 112.70 04/04/2019 02:06:46 -72.71, -39.74 112.70 2.93 25
31 04/04/2019 02:57:56 72.67, 127.58 67.24 04/04/2019 02:57:27 72.67, 127.52 67.26 2.16 29
32 04/04/2019 03:48:40 -72.67, -65.11 112.78 04/04/2019 03:48:08 -72.69, -65.12 112.75 2.25 32
33 04/04/2019 04:39:26 72.67, 102.19 67.22 04/04/2019 04:38:49 72.66, 102.14 67.21 2.40 37
34 04/04/2019 05:30:10 -72.67, -90.50 112.80 04/04/2019 05:29:30 -72.67, -90.50 112.79 0.47 40
35 04/04/2019 06:20:56 72.68, 76.81 67.20 04/04/2019 06:20:10 72.69, 76.87 67.21 2.38 46
36 04/04/2019 07:11:40 -72.68,-115.88 112.82 04/04/2019 07:10:52 -72.65,-115.88 112.84 3.13 48
37 04/04/2019 08:02:26 72.68, 51.42 67.18 04/04/2019 08:01:32 72.67, 51.49 67.17 2.70 54
38 04/04/2019 08:53:09 -72.63,-141.16 112.89 04/04/2019 08:52:14 -72.63,-141.26 112.88 3.05 55
39 04/04/2019 09:43:55 72.64, 26.14 67.10 04/04/2019 09:42:54 72.65, 26.11 67.13 1.77 61
40 04/04/2019 10:34:39 -72.64,-166.55 112.92 04/04/2019 10:33:35 -72.67,-166.53 112.88 2.87 64
41 04/04/2019 11:25:25 72.64, 0.75 67.08 04/04/2019 11:24:16 72.63, 0.73 67.08 1.38 69
42 04/04/2019 12:16:09 -72.65, 168.07 112.94 04/04/2019 12:14:57 -72.65, 168.09 112.92 0.90 72
43 04/04/2019 13:06:53 72.55, -24.42 66.95 04/04/2019 13:05:39 72.56, -24.75 66.99 10.93 74
44 04/04/2019 13:57:35 -72.45, 143.09 113.18 04/04/2019 13:56:22 -72.48, 142.41 113.10 23.11 73
45 04/04/2019 14:48:17 72.25, -49.20 66.59 04/04/2019 14:47:07 72.24, -50.73 66.68 51.97 70
46 04/04/2019 15:38:59 -72.15, 118.30 113.53 04/04/2019 15:37:50 -72.15, 116.43 113.42 63.92 69
47 04/04/2019 16:29:41 71.94, -74.00 66.24 04/04/2019 16:28:34 71.96, -76.60 66.41 89.72 67




NCC Satellite Simultaneous Nadir Overpasses (SNOs) Prediction Service
